TimeEDT,TemperatureF,Dew PointF,Humidity,Sea Level PressureIn,VisibilityMPH,Wind Direction,Wind SpeedMPH,Gust SpeedMPH,PrecipitationIn,Events,Conditions,WindDirDegrees,DateUTC
12:25 AM,32.0,30.2,93,29.60,1.8,ENE,4.6,-,0.00,Rain,Light Freezing Rain,60,2013-03-25 04:25:00
12:44 AM,32.0,30.2,93,29.60,2.0,NNE,3.5,-,0.00,Rain,Light Freezing Rain,30,2013-03-25 04:44:00
12:53 AM,32.0,30.0,92,29.60,2.5,NNE,4.6,-,0.00,Rain,Light Freezing Rain,30,2013-03-25 04:53:00
1:16 AM,32.0,30.2,93,29.58,2.0,East,4.6,-,0.00,Snow,Light Snow,80,2013-03-25 05:16:00
1:41 AM,32.0,30.2,93,29.59,1.5,Calm,Calm,-,0.00,Snow,Light Snow,0,2013-03-25 05:41:00
1:53 AM,32.0,30.0,92,29.60,1.5,Calm,Calm,-,0.00,Snow,Light Snow,0,2013-03-25 05:53:00
2:18 AM,32.0,30.2,93,29.60,0.8,WNW,4.6,-,0.00,Snow,Light Snow,300,2013-03-25 06:18:00
2:26 AM,32.0,30.2,93,29.60,0.8,Variable,4.6,-,0.00,Snow,Light Snow,0,2013-03-25 06:26:00
2:53 AM,32.0,30.9,96,29.61,0.5,Calm,Calm,-,0.00,Fog-Snow,Snow,0,2013-03-25 06:53:00
3:38 AM,32.0,30.2,93,29.58,1.2,NW,3.5,-,0.00,Snow,Light Snow,320,2013-03-25 07:38:00
3:53 AM,32.0,30.9,96,29.59,1.2,Calm,Calm,-,0.00,Snow,Light Snow,0,2013-03-25 07:53:00
4:11 AM,32.0,28.4,87,29.56,1.2,Calm,Calm,-,0.00,Snow,Light Snow,0,2013-03-25 08:11:00
4:44 AM,30.2,28.4,93,29.54,2.0,ENE,3.5,-,0.00,Snow,Light Snow,60,2013-03-25 08:44:00
4:53 AM,30.9,30.0,96,29.55,3.0,NNE,3.5,-,0.00,Snow,Light Snow,30,2013-03-25 08:53:00
5:30 AM,30.2,30.2,100,29.54,2.5,Calm,Calm,-,0.00,Snow,Light Snow,0,2013-03-25 09:30:00
5:53 AM,30.9,30.0,96,29.55,2.0,Calm,Calm,-,0.00,Snow,Light Snow,0,2013-03-25 09:53:00
6:53 AM,30.9,30.0,96,29.54,1.0,Calm,Calm,-,0.00,Snow,Light Snow,0,2013-03-25 10:53:00
7:53 AM,30.9,30.0,96,29.53,1.0,Calm,Calm,-,0.00,Snow,Light Snow,0,2013-03-25 11:53:00
8:09 AM,30.2,30.2,100,29.52,0.2,Calm,Calm,-,0.00,Fog,Light Freezing Fog,0,2013-03-25 12:09:00
8:27 AM,30.2,30.2,100,29.52,2.0,Calm,Calm,-,0.00,,Overcast,0,2013-03-25 12:27:00
8:53 AM,32.0,30.0,92,29.54,2.0,Calm,Calm,-,0.00,,Overcast,0,2013-03-25 12:53:00
9:46 AM,33.8,30.2,87,29.53,2.0,Calm,Calm,-,N/A,,Overcast,0,2013-03-25 13:46:00
9:53 AM,33.1,30.0,89,29.54,2.0,Calm,Calm,-,N/A,,Overcast,0,2013-03-25 13:53:00
10:00 AM,33.8,30.2,87,29.53,10.0,Calm,Calm,-,0.01,Snow,Light Snow,0,2013-03-25 14:00:00
10:18 AM,33.8,30.2,87,29.53,2.0,Calm,Calm,-,0.02,Snow,Light Snow,0,2013-03-25 14:18:00
10:29 AM,33.8,30.2,87,29.53,1.8,Calm,Calm,-,0.03,Snow,Light Snow,0,2013-03-25 14:29:00
10:36 AM,33.8,30.2,87,29.53,2.0,Calm,Calm,-,0.03,Snow,Light Snow,0,2013-03-25 14:36:00
10:53 AM,32.0,30.9,96,29.54,2.0,Calm,Calm,-,0.05,Snow,Light Snow,0,2013-03-25 14:53:00
11:01 AM,32.0,30.2,93,29.54,2.0,SSW,3.5,-,0.01,Snow,Light Snow,200,2013-03-25 15:01:00
11:09 AM,32.0,30.2,93,29.53,1.8,South,3.5,-,0.01,Snow,Light Snow,190,2013-03-25 15:09:00
11:53 AM,33.1,30.9,92,29.55,1.2,SSW,3.5,-,0.06,Snow,Light Snow,200,2013-03-25 15:53:00
12:17 PM,33.8,30.2,87,29.53,2.5,Calm,Calm,-,0.04,Snow,Light Snow,0,2013-03-25 16:17:00
12:46 PM,35.6,32.0,87,29.53,2.0,Calm,Calm,-,0.11,,Overcast,0,2013-03-25 16:46:00
12:53 PM,34.0,32.0,92,29.54,2.0,South,3.5,-,0.13,,Overcast,190,2013-03-25 16:53:00
1:00 PM,33.8,32.0,93,29.53,5.0,South,3.5,-,0.02,,Overcast,190,2013-03-25 17:00:00
1:53 PM,34.0,30.9,89,29.54,5.0,South,4.6,-,0.15,Snow,Light Snow,190,2013-03-25 17:53:00
2:21 PM,35.6,32.0,87,29.53,10.0,SW,3.5,-,0.05,,Overcast,220,2013-03-25 18:21:00
2:42 PM,35.6,32.0,87,29.53,10.0,SW,4.6,-,0.08,Rain,Light Rain,220,2013-03-25 18:42:00
2:53 PM,35.1,33.1,92,29.55,7.0,SW,3.5,-,0.10,Rain,Light Rain,220,2013-03-25 18:53:00
3:41 PM,35.6,32.0,87,29.54,2.5,Calm,Calm,-,0.07,Rain,Light Rain,0,2013-03-25 19:41:00
3:53 PM,35.1,33.1,92,29.55,2.5,Calm,Calm,-,0.09,Rain,Light Rain,0,2013-03-25 19:53:00
4:49 PM,37.4,33.8,87,29.56,10.0,WSW,3.5,-,0.07,,Overcast,250,2013-03-25 20:49:00
4:53 PM,37.0,33.1,86,29.57,10.0,Calm,Calm,-,0.07,,Overcast,0,2013-03-25 20:53:00
5:53 PM,37.9,33.1,83,29.58,10.0,Calm,Calm,-,0.03,,Mostly Cloudy,0,2013-03-25 21:53:00
6:53 PM,37.9,32.0,79,29.62,10.0,Calm,Calm,-,N/A,,Overcast,0,2013-03-25 22:53:00
7:53 PM,37.0,32.0,82,29.64,10.0,Calm,Calm,-,0.00,,Scattered Clouds,0,2013-03-25 23:53:00
8:53 PM,37.0,30.0,76,29.67,10.0,Calm,Calm,-,N/A,,Mostly Cloudy,0,2013-03-26 00:53:00
9:53 PM,34.0,32.0,92,29.69,10.0,Calm,Calm,-,N/A,,Partly Cloudy,0,2013-03-26 01:53:00
10:53 PM,35.1,28.0,76,29.70,10.0,Calm,Calm,-,N/A,,Clear,0,2013-03-26 02:53:00
11:53 PM,36.0,25.0,64,29.72,10.0,West,3.5,-,N/A,,Overcast,260,2013-03-26 03:53:00